Regional Weather Roundup
Issued by NWS Newport/Morehead, NC

Current Version | Previous Version | Graphics & Text | Print | Product List | Glossary Off
Versions: 1 2 3 4 5 6 7 8 9 10 11 12 13 14 15 16 17 18 19 20 21 22 23 24 25 26 27 28 29 30 31 32 33 34 35 36 37 38 39 40 41 42 43 44 45 46 47 48 49 50

766
ASUS42 KMHX 290913
RWRMHX
WEATHER ROUNDUP FOR EASTERN NORTH CAROLINA
NATIONAL WEATHER SERVICE NEWPORT/MOREHEAD CITY NC
500 AM EDT SAT APR 29 2017

NOTE: "FAIR" INDICATES FEW OR NO CLOUDS BELOW 12,000 FEET
WITH NO SIGNIFICANT WEATHER AND/OR OBSTRUCTIONS TO VISIBILITY

NCZ015>017-031-032-045>047-102-103-291000-
NORTH COAST

CITY           SKY/WX    TMP DP  RH WIND       PRES   REMARKS
EDENTON        CLOUDY    76  71  85 SW8       30.16R
ELIZABETH CITY MOCLDY    74  72  93 SW13      30.15R
KITTY HAWK     SUNNY     73  73  97 SW5       30.14R
MANTEO         CLEAR     73  71  92 SW13      30.16R

$$

NCZ045>047-081-094-103-104-291000-
CENTRAL COAST

CITY           SKY/WX    TMP DP  RH WIND       PRES   REMARKS
FRISCO         CLEAR     73  71  93 SW9       30.18R FOG

$$

NCZ095-097-098-100-101-291000-
SOUTHERN COAST

CITY           SKY/WX    TMP DP  RH WIND       PRES   REMARKS
BEAUFORT       PTCLDY    73  73 100 S10       30.18R
CEDAR ISLAND   NOT AVBL
JACKSONVILLE   CLEAR     73  72  96 S8        30.16S
PINEY ISLAND   SUNNY    N/A N/A N/A SW9       30.17R
WILMINGTON     MOCLDY    74  72  93 SW7       30.18R


$$

NCZ011>013-027>030-043-044-078>080-089-090>093-098-291000-
COASTAL PLAIN

CITY           SKY/WX    TMP DP  RH WIND       PRES   REMARKS
AHOSKIE          N/A     73  70  92 S5        30.14R
CLINTON        PTCLDY    74  73  94 SW3       30.17R
ELIZABETHTOWN  MOCLDY    74  72  93 S6        30.17R
GOLDSBORO      CLOUDY    75  75 100 SW6       30.15R
GREENVILLE     CLOUDY    73  72  94 SW7       30.17R
HAVELOCK       NOT AVBL
KENANSVILLE    CLOUDY    73  72  94 CALM      30.17R
KINSTON        CLOUDY    74  71  90 CALM      30.17R
NEW BERN       MOCLDY    74  72  93 S12       30.17R
RICHLANDS      CLOUDY    73  71  93 S10       30.17R
ROCKY MOUNT    CLOUDY    74  72  93 S6        30.15R
WASHINGTON     CLOUDY    74  71  89 SW8       30.16R
WHITEVILLE     CLOUDY    74  71  91 S5        30.17R

$$

AMZ130-135-150-152-154-156-158-170-250-252-270-ANZ085-086-088-633-658-670-291000-
MARINE OBSERVATIONS

STATION/POSITION TIME  TEMP    WIND        PRES    WAVE   SWELL
                       AIR SEA DIR/SP/G            HT/PER HT/PER
                 (UTC) (F)     (DEG/KT/KT) (MB)    (FT/S) (FT/S)
CHESAPEAKE LIGHT NOT AVBL
64 E VA BEACH    0850   63 57  220/ 16/ 17 1020.7    4/ 6   2/ 7
DUCK             0848   74 58  220/ 14/ 16 1020.1
2 E DUCK         0900      59                N/A     2/ 8
OREGON INLET     0842   74 75  200/ 14/ 17 1021.2
13E OREGON INLT  0848      62                N/A     4/ 5   2/ 8
HATTERAS CG      0848   73 71  200/  8/ 12 1021.6
DIAMOND BUOY     0850   77 76  210/ 19/ 21 1021.5    4/ 5   2/ 8
CAPE LOOKOUT     0900   72     210/  7/  9 1021.5
BEAUFORT LAB     0848   73 71  200/  8/ 11 1020.9
30 SE NEW RVR IN 0808   72     200/  8/ 12 1021.8
30 SE NEW RVR IN 0843      72                N/A     4/ 8
27 SE WRIGHTSVLE 0808   73 72  180/ 10/ 14 1020.4
5 SE WRIGHTSVLE  0808   71 70  200/  4/  6 1021.2
225 S CAPE HAT   0850   74 75  160/ 12/ 14 1023.5    3/ 7   2/ 7
41 SE CHARLESTON 0850   75 74  190/ 10/ 12 1021.0    4/ 6   3/ 6

$$




USA.gov is the U.S. government's official web portal to all federal, state and local government web resources and services.